Content
SEND FEEDBACK

Daily
Averages
Monthly
Summary
United States of America

FAYETTEVILLE, TENNESSEE


Home > North America > United States > Tennessee
Elevation: 213 meters     Latitude: 35 10N     Longitude: 086 33W

WEATHER
 
SELECT A DAY
Number of Records: 298,249;   Date Range: 4/22/02 - 8/28/14
 
SHARE

PRINT THIS DATA

[ ← Previous Day ]
WEATHER ALMANAC - 25 AUGUST, 2013
[ Next Day → ]
[ °F ]   °C
Weather ElementAverageHighLow
Temperature23.5 °C29 °C (2:55 pm)18 °C (11:55 pm)
Dewpoint15.9 °C19 °C (12:35 am)13 °C (4:35 pm)
Humidity64.9 %88 % (4:55 am)37 % (4:35 pm)
Barometer1025.7 hPa1027.4 hPa (9:15 am)1024 hPa (12:35 am)
Wind Speed4.7 km/h16.7 km/h (10:55 am)
Wind Gust27.8 km/h (9:55 am)
Weather ElementAverage
Visibility16.1 km
Wind DirectionENE (68.5 °)

Weather ElementTotal
Precipitation---
Cooling Degree Days5.2 (Base 18.3)
Growing Degree Days13.5 (Base 10)
Averaged from 71 records on 25 August, 2013
WEATHER CONDITIONS BREAKOUT
WIND DIRECTION BREAKOUT
WEATHER BY HOUR - 25 AUGUST, 2013
[ °F ]   °C
Local TimeTemperatureDewpointHumidityBarometerVisibilityWind DirectionWind SpeedGust SpeedPrecipitationEventsConditions
12:35 AM22 °C19 °C83 %1024 hPa16.1 kmSE (130°)9.3 km/hClear
12:55 AM22 °C19 °C83 %1024 hPa16.1 kmESE (120°)9.3 km/hClear
1:15 AM22 °C18 °C78 %1024 hPa16.1 kmSE (130°)7.4 km/hClear
1:35 AM22 °C18 °C78 %1024.4 hPa16.1 kmSE (130°)9.3 km/hClear
1:55 AM22 °C17 °C73 %1024.4 hPa16.1 kmSE (130°)7.4 km/hClear
2:15 AM22 °C17 °C73 %1024.7 hPa16.1 kmSE (130°)5.6 km/hClear
2:35 AM22 °C17 °C73 %1024.7 hPa16.1 kmCalmClear
2:55 AM22 °C17 °C73 %1024.7 hPa16.1 kmSSE (150°)7.4 km/hClear
3:15 AM22 °C17 °C73 %1024.7 hPa16.1 kmSSE (150°)5.6 km/hClear
3:35 AM22 °C17 °C73 %1025.1 hPa16.1 kmSSE (150°)7.4 km/hClear
3:55 AM21 °C17 °C78 %1025.1 hPa16.1 kmSSE (150°)7.4 km/hClear
4:15 AM21 °C17 °C78 %1025.4 hPa16.1 kmCalmClear
4:35 AM20 °C17 °C83 %1025.4 hPa16.1 kmCalmClear
4:55 AM19 °C17 °C88 %1025.4 hPa16.1 kmCalmClear
5:15 AM19 °C17 °C88 %1025.4 hPa16.1 kmCalmClear
5:35 AM20 °C17 °C83 %1025.4 hPa16.1 kmCalmClear
5:55 AM20 °C17 °C83 %1025.7 hPa16.1 kmCalmClear
6:15 AM21 °C17 °C78 %1025.7 hPa16.1 kmSE (130°)5.6 km/hClear
6:35 AM20 °C17 °C83 %1026.1 hPa16.1 kmCalmClear
6:55 AM20 °C17 °C83 %1026.4 hPa11.3 kmCalmClear
7:15 AM21 °C17 °C78 %1026.4 hPa16.1 kmCalmClear
7:35 AM21 °C17 °C78 %1026.4 hPa16.1 kmESE (120°)5.6 km/hClear
7:55 AM22 °C17 °C73 %1026.8 hPa16.1 kmCalmClear
8:15 AM22 °C16 °C69 %1027.1 hPa16.1 kmCalmClear
8:35 AM23 °C16 °C65 %1027.1 hPa16.1 kmESE (120°)9.3 km/hClear
8:55 AM23 °C15 °C61 %1027.1 hPa16.1 kmESE (120°)13 km/hClear
9:15 AM24 °C15 °C57 %1027.4 hPa16.1 kmESE (110°)9.3 km/hClear
9:35 AM25 °C14 °C50 %1027.4 hPa16.1 kmESE (110°)14.8 km/hClear
9:55 AM25 °C14 °C50 %1027.4 hPa16.1 kmESE (120°)9.3 km/h27.8 km/hClear
10:15 AM25 °C14 °C50 %1027.4 hPa16.1 kmESE (120°)14.8 km/hClear
10:35 AM25 °C15 °C54 %1027.4 hPa16.1 kmESE (120°)13 km/hClear
10:55 AM26 °C15 °C51 %1027.4 hPa16.1 kmESE (120°)16.7 km/hClear
11:15 AM26 °C15 °C51 %1027.4 hPa16.1 kmSE (130°)11.1 km/hClear
11:35 AM26 °C15 °C51 %1027.4 hPa16.1 kmSE (140°)13 km/hClear
11:55 AM27 °C14 °C45 %1027.1 hPa16.1 kmSE (140°)7.4 km/h25.9 km/hClear
12:15 PM27 °C14 °C45 %1026.8 hPa16.1 kmSSE (150°)11.1 km/hClear
12:35 PM27 °C14 °C45 %1026.4 hPa16.1 kmSSE (160°)13 km/hClear
12:55 PM27 °C14 °C45 %1026.1 hPa16.1 kmCalmClear
1:15 PM27 °C14 °C45 %1025.7 hPa16.1 kmSE (140°)11.1 km/hScattered Clouds
1:35 PM28 °C15 °C45 %1025.7 hPa16.1 kmESE (110°)5.6 km/hScattered Clouds
1:55 PM28 °C15 °C45 %1025.4 hPa16.1 kmSouth (170°)5.6 km/hScattered Clouds
2:15 PM28 °C15 °C45 %1025.4 hPa16.1 kmSSE (150°)7.4 km/hScattered Clouds
2:35 PM28 °C14 °C42 %1025.1 hPa16.1 kmESE (120°)5.6 km/hScattered Clouds
2:55 PM29 °C14 °C40 %1025.1 hPa16.1 kmSSE (160°)5.6 km/hScattered Clouds
3:15 PM28 °C14 °C42 %1024.7 hPa16.1 kmCalmScattered Clouds
3:35 PM28 °C15 °C45 %1024.4 hPa16.1 kmSE (130°)5.6 km/hScattered Clouds
3:55 PM28 °C14 °C42 %1024 hPa16.1 kmESE (110°)7.4 km/hScattered Clouds
4:15 PM28 °C14 °C42 %1024.4 hPa16.1 kmSE (130°)5.6 km/hScattered Clouds
4:35 PM29 °C13 °C37 %1024 hPa16.1 kmSE (130°)9.3 km/hScattered Clouds
4:55 PM28 °C14 °C42 %1024.4 hPa16.1 kmCalmScattered Clouds
5:15 PM28 °C13 °C39 %1024.4 hPa16.1 kmESE (120°)5.6 km/hScattered Clouds
5:35 PM27 °C13 °C42 %1024.4 hPa16.1 kmCalmScattered Clouds
5:55 PM27 °C14 °C45 %1024.4 hPa16.1 kmESE (110°)7.4 km/hClear
6:15 PM27 °C14 °C45 %1024.4 hPa16.1 kmCalmClear
6:35 PM27 °C16 °C51 %1024.7 hPa16.1 kmCalmClear
6:55 PM25 °C17 °C61 %1024.7 hPa16.1 kmCalmClear
7:15 PM23 °C17 °C69 %1024.7 hPa16.1 kmCalmClear
7:35 PM22 °C17 °C73 %1024.7 hPa16.1 kmCalmClear
7:55 PM22 °C17 °C73 %1025.1 hPa16.1 kmCalmClear
8:15 PM22 °C17 °C73 %1025.1 hPa16.1 kmCalmClear
8:35 PM21 °C17 °C78 %1025.4 hPa16.1 kmCalmClear
8:55 PM21 °C17 °C78 %1025.4 hPa16.1 kmCalmClear
9:15 PM20 °C17 °C83 %1025.7 hPa16.1 kmCalmClear
9:35 PM21 °C17 °C78 %1025.7 hPa16.1 kmCalmClear
9:55 PM20 °C17 °C83 %1025.7 hPa16.1 kmCalmClear
10:15 PM20 °C17 °C83 %1026.1 hPa16.1 kmCalmClear
10:35 PM19 °C17 °C88 %1026.1 hPa16.1 kmCalmClear
10:55 PM19 °C17 °C88 %1026.4 hPa16.1 kmCalmClear
11:15 PM19 °C17 °C88 %1026.4 hPa16.1 kmCalmClear
11:35 PM19 °C17 °C88 %1026.4 hPa16.1 kmCalmClear
11:55 PM18 °C16 °C88 %1026.4 hPa16.1 kmCalmClear
Hourly data recorded from KMDQ, located 0 kilometers away from Fayetteville, Tennessee







STORIES FROM OUR PARTNERS